User: anonymous   Login
Location: Newark
(48.9320°N, 2.2664°E)
Time: 18:04:48
(UTC+00:00)
Language:

Tiros 1 - Orbit

View from above orbital plane
View from above orbital plane
View from above satellite
View from above satellite

Ground track
Ground track

The orbit data is extracted from the following two-line orbital elements,

1    29U 60002B   20055.60967304 -.00000113 +00000-0 +14241-4 0  9998
2    29 048.3793 125.8770 0023506 106.0898 254.2604 14.74342493201743
Epoch (UTC): 24 February 2020 14:37:55
Eccentricity: 0.0023506
inclination: 48.3793°
perigee height: 631 km
apogee height: 664 km
right ascension of ascending node: 125.8770°
argument of perigee: 106.0898°
revolutions per day: 14.74342493
mean anomaly at epoch: 254.2604°
orbit number at epoch: 20174

The dashed part of the orbit path shows where the satellite is in the earth's shadow,  

DLR